N76SAM KSYR-KBUF

Flight info

Callsign N76SAM
Flight time 0h 37m
Altitude 14000
Route DINES BUF
Aircraft CRJ7/M-VGDW/C

Departure

Time 2026-04-25 02:15
Airport Syracuse Hancock International Airport (KSYR)

Arrival

Time 2026-04-25 02:52
Airport Buffalo Niagara International Airport (KBUF)
Time Latitude Longitude Altitude Speed Heading
2026-04-25 01:57 43.10644 -76.11767 428 ft 0 kts 178°
2026-04-25 02:03 43.10643 -76.11767 428 ft 0 kts 178°
2026-04-25 02:05 43.10648 -76.11767 428 ft 2 kts 178°
2026-04-25 02:05 43.10664 -76.11768 428 ft 3 kts 178°
2026-04-25 02:05 43.10684 -76.11768 428 ft 3 kts 178°
2026-04-25 02:06 43.10693 -76.11769 428 ft 1 kts 178°
2026-04-25 02:06 43.10682 -76.11777 428 ft 5 kts 231°
2026-04-25 02:06 43.10686 -76.11804 428 ft 4 kts 321°
2026-04-25 02:06 43.10703 -76.11819 428 ft 7 kts 337°
2026-04-25 02:07 43.10733 -76.11800 428 ft 4 kts 74°
2026-04-25 02:07 43.10738 -76.11768 428 ft 7 kts 90°
2026-04-25 02:07 43.10744 -76.11605 428 ft 22 kts 87°
2026-04-25 02:07 43.10750 -76.11459 428 ft 10 kts 92°
2026-04-25 02:08 43.10735 -76.11390 428 ft 5 kts 140°
2026-04-25 02:08 43.10711 -76.11372 428 ft 4 kts 162°
2026-04-25 02:08 43.10670 -76.11359 428 ft 0 kts 167°
2026-04-25 02:08 43.10664 -76.11356 428 ft 0 kts 160°
2026-04-25 02:09 43.10662 -76.11356 428 ft 2 kts 160°
2026-04-25 02:09 43.10639 -76.11317 428 ft 9 kts 100°
2026-04-25 02:09 43.10641 -76.11188 428 ft 18 kts 88°
2026-04-25 02:09 43.10646 -76.10973 428 ft 27 kts 88°
2026-04-25 02:10 43.10655 -76.10668 428 ft 35 kts 87°
2026-04-25 02:10 43.10667 -76.10327 428 ft 37 kts 87°
2026-04-25 02:10 43.10679 -76.09975 428 ft 37 kts 88°
2026-04-25 02:10 43.10686 -76.09688 428 ft 22 kts 88°
2026-04-25 02:11 43.10671 -76.09527 428 ft 12 kts 129°
2026-04-25 02:11 43.10614 -76.09440 428 ft 8 kts 118°
2026-04-25 02:11 43.10623 -76.09385 428 ft 9 kts 51°
2026-04-25 02:11 43.10655 -76.09341 428 ft 0 kts 41°
2026-04-25 02:12 43.10672 -76.09320 428 ft 8 kts 42°
2026-04-25 02:12 43.10767 -76.09274 428 ft 22 kts 357°
2026-04-25 02:12 43.10843 -76.09279 428 ft 0 kts 357°
2026-04-25 02:13 43.10847 -76.09279 428 ft 5 kts 357°
2026-04-25 02:13 43.10907 -76.09289 428 ft 6 kts 332°
2026-04-25 02:14 43.10925 -76.09340 428 ft 0 kts 268°
2026-04-25 02:14 43.10925 -76.09341 428 ft 0 kts 268°
2026-04-25 02:14 43.10925 -76.09346 428 ft 5 kts 268°
2026-04-25 02:14 43.10920 -76.09548 428 ft 49 kts 268°
2026-04-25 02:15 43.10888 -76.10417 429 ft 134 kts 267°
2026-04-25 02:15 43.10837 -76.11913 935 ft 176 kts 268°
2026-04-25 02:15 43.10779 -76.13821 1423 ft 229 kts 268°
2026-04-25 02:15 43.10707 -76.16253 1947 ft 282 kts 268°
2026-04-25 02:16 43.10621 -76.19179 2445 ft 332 kts 268°
2026-04-25 02:16 43.10524 -76.22543 2928 ft 367 kts 268°
2026-04-25 02:16 43.10424 -76.25984 3367 ft 354 kts 268°
2026-04-25 02:16 43.10331 -76.29277 3798 ft 339 kts 268°
2026-04-25 02:17 43.10237 -76.32479 3928 ft 335 kts 268°
2026-04-25 02:17 43.10140 -76.35666 3982 ft 335 kts 268°
2026-04-25 02:17 43.10041 -76.38843 3996 ft 335 kts 268°
2026-04-25 02:17 43.09940 -76.42038 3999 ft 336 kts 268°
2026-04-25 02:18 43.09838 -76.45232 4015 ft 335 kts 268°
2026-04-25 02:18 43.09738 -76.48350 4465 ft 321 kts 268°
2026-04-25 02:18 43.09654 -76.51346 4904 ft 309 kts 271°
2026-04-25 02:18 43.09808 -76.54221 5353 ft 297 kts 277°
2026-04-25 02:19 43.10087 -76.56984 5809 ft 290 kts 279°
2026-04-25 02:19 43.10447 -76.59645 6254 ft 279 kts 283°
2026-04-25 02:19 43.10986 -76.62142 6699 ft 269 kts 287°
2026-04-25 02:19 43.11638 -76.64496 7140 ft 260 kts 291°
2026-04-25 02:20 43.12374 -76.66679 7575 ft 251 kts 294°
2026-04-25 02:20 43.13163 -76.68765 8015 ft 242 kts 296°
2026-04-25 02:20 43.13959 -76.70752 8453 ft 233 kts 297°
2026-04-25 02:20 43.14738 -76.72656 8891 ft 224 kts 297°
2026-04-25 02:21 43.15489 -76.74473 9325 ft 214 kts 297°
2026-04-25 02:21 43.16211 -76.76207 9758 ft 204 kts 297°
2026-04-25 02:21 43.16899 -76.77849 10186 ft 193 kts 297°
2026-04-25 02:21 43.17551 -76.79389 10609 ft 180 kts 297°
2026-04-25 02:22 43.18161 -76.80817 11022 ft 166 kts 297°
2026-04-25 02:22 43.18722 -76.82111 11419 ft 149 kts 297°
2026-04-25 02:22 43.19226 -76.83252 11789 ft 131 kts 297°
2026-04-25 02:22 43.19683 -76.84265 12131 ft 121 kts 297°
2026-04-25 02:23 43.20195 -76.85422 11106 ft 183 kts 297°
2026-04-25 02:23 43.20839 -76.86935 11955 ft 170 kts 297°
2026-04-25 02:23 43.21460 -76.88388 12309 ft 181 kts 297°
2026-04-25 02:23 43.22118 -76.89933 12537 ft 199 kts 297°
2026-04-25 02:24 43.22870 -76.91730 12790 ft 234 kts 297°
2026-04-25 02:24 43.23421 -76.93062 12942 ft 249 kts 297°
2026-04-25 02:24 43.24279 -76.95140 13146 ft 251 kts 297°
2026-04-25 02:24 43.25148 -76.97245 13351 ft 257 kts 297°
2026-04-25 02:25 43.25915 -76.99106 13528 ft 261 kts 297°
2026-04-25 02:25 43.26812 -77.01284 13729 ft 264 kts 297°
2026-04-25 02:25 43.27714 -77.03494 13881 ft 266 kts 295°
2026-04-25 02:25 43.28210 -77.05926 13978 ft 266 kts 276°
2026-04-25 02:26 43.28253 -77.08480 14003 ft 270 kts 268°
2026-04-25 02:26 43.28137 -77.11052 14002 ft 270 kts 265°
2026-04-25 02:26 43.27967 -77.13584 14000 ft 269 kts 265°
2026-04-25 02:26 43.27773 -77.16170 14004 ft 268 kts 264°
2026-04-25 02:27 43.27530 -77.18673 14014 ft 268 kts 260°
2026-04-25 02:27 43.27061 -77.21154 14018 ft 269 kts 253°
2026-04-25 02:27 43.26365 -77.23545 14019 ft 270 kts 247°
2026-04-25 02:27 43.25444 -77.25799 14019 ft 272 kts 239°
2026-04-25 02:28 43.24345 -77.27913 14019 ft 273 kts 236°
2026-04-25 02:28 43.23173 -77.29966 14019 ft 273 kts 234°
2026-04-25 02:28 43.21979 -77.31990 14019 ft 273 kts 233°
2026-04-25 02:28 43.20798 -77.34030 14018 ft 273 kts 234°
2026-04-25 02:29 43.19657 -77.36107 14018 ft 272 kts 237°
2026-04-25 02:29 43.18610 -77.38259 14019 ft 271 kts 240°
2026-04-25 02:29 43.17672 -77.40499 14019 ft 270 kts 244°
2026-04-25 02:29 43.16868 -77.42768 14019 ft 270 kts 247°
2026-04-25 02:30 43.16103 -77.45137 14018 ft 270 kts 249°
2026-04-25 02:30 43.15457 -77.47546 14019 ft 269 kts 252°
2026-04-25 02:30 43.14880 -77.49986 14019 ft 269 kts 254°
2026-04-25 02:30 43.14328 -77.52435 14019 ft 269 kts 254°
2026-04-25 02:31 43.13802 -77.54894 14041 ft 271 kts 255°
2026-04-25 02:31 43.13308 -77.57414 14014 ft 276 kts 257°
2026-04-25 02:31 43.12904 -77.60007 14020 ft 281 kts 260°
2026-04-25 02:31 43.12557 -77.62662 14021 ft 285 kts 261°
2026-04-25 02:32 43.12231 -77.65350 14020 ft 287 kts 261°
2026-04-25 02:32 43.11912 -77.68066 14019 ft 289 kts 262°
2026-04-25 02:32 43.11596 -77.70790 14019 ft 290 kts 262°
2026-04-25 02:32 43.11283 -77.73513 14019 ft 290 kts 262°
2026-04-25 02:33 43.10964 -77.76242 14019 ft 291 kts 261°
2026-04-25 02:33 43.10593 -77.78963 14019 ft 291 kts 259°
2026-04-25 02:33 43.10172 -77.81670 14019 ft 291 kts 258°
2026-04-25 02:33 43.09712 -77.84371 14019 ft 292 kts 257°
2026-04-25 02:34 43.09220 -77.87078 14019 ft 294 kts 257°
2026-04-25 02:34 43.08707 -77.89787 13916 ft 294 kts 256°
2026-04-25 02:34 43.08180 -77.92476 13666 ft 290 kts 256°
2026-04-25 02:34 43.07653 -77.95111 13286 ft 287 kts 256°
2026-04-25 02:35 43.07124 -77.97715 12614 ft 288 kts 255°
2026-04-25 02:35 43.06581 -78.00364 11895 ft 290 kts 255°
2026-04-25 02:35 43.06030 -78.03026 11170 ft 291 kts 255°
2026-04-25 02:35 43.05476 -78.05684 10447 ft 291 kts 255°
2026-04-25 02:36 43.04915 -78.08367 9601 ft 295 kts 255°
2026-04-25 02:36 43.04347 -78.11073 8753 ft 298 kts 255°
2026-04-25 02:36 43.03773 -78.13800 7904 ft 299 kts 255°
2026-04-25 02:36 43.03195 -78.16541 7054 ft 300 kts 255°
2026-04-25 02:37 43.02615 -78.19278 6380 ft 295 kts 255°
2026-04-25 02:37 43.02051 -78.21929 5924 ft 286 kts 255°
2026-04-25 02:37 43.01501 -78.24508 5469 ft 279 kts 256°
2026-04-25 02:37 43.00962 -78.27043 5014 ft 275 kts 255°
2026-04-25 02:38 43.00431 -78.29540 4562 ft 273 kts 255°
2026-04-25 02:38 42.99906 -78.32020 4166 ft 269 kts 254°
2026-04-25 02:38 42.99673 -78.34438 4045 ft 256 kts 277°
2026-04-25 02:38 43.00328 -78.36640 4047 ft 248 kts 300°
2026-04-25 02:39 43.00958 -78.38819 4007 ft 249 kts 277°
2026-04-25 02:39 43.00636 -78.41110 4025 ft 249 kts 244°
2026-04-25 02:39 42.99717 -78.42963 4049 ft 227 kts 232°
2026-04-25 02:39 42.98725 -78.44592 4023 ft 222 kts 231°
2026-04-25 02:40 42.97803 -78.46285 4020 ft 222 kts 236°
2026-04-25 02:40 42.97012 -78.48093 4019 ft 222 kts 242°
2026-04-25 02:40 42.96345 -78.49988 4019 ft 221 kts 246°
2026-04-25 02:40 42.95772 -78.51941 4019 ft 221 kts 250°
2026-04-25 02:41 42.95264 -78.53925 4019 ft 221 kts 251°
2026-04-25 02:41 42.94794 -78.55925 4018 ft 221 kts 253°
2026-04-25 02:41 42.94417 -78.57937 3997 ft 221 kts 263°
2026-04-25 02:41 42.94746 -78.59975 4050 ft 222 kts 291°
2026-04-25 02:42 42.95065 -78.62018 3996 ft 225 kts 268°
2026-04-25 02:42 42.94437 -78.63930 4018 ft 228 kts 229°
2026-04-25 02:42 42.93066 -78.65009 4049 ft 231 kts 200°
2026-04-25 02:42 42.91612 -78.65920 3995 ft 229 kts 217°
2026-04-25 02:43 42.90810 -78.67713 4018 ft 225 kts 255°
2026-04-25 02:43 42.91009 -78.69784 4018 ft 222 kts 294°
2026-04-25 02:43 42.92085 -78.71173 4020 ft 211 kts 332°
2026-04-25 02:43 42.93353 -78.72136 4029 ft 208 kts 328°
2026-04-25 02:44 42.94509 -78.73255 4013 ft 199 kts 322°
2026-04-25 02:44 42.95556 -78.74456 4014 ft 195 kts 318°
2026-04-25 02:44 42.96542 -78.75695 3965 ft 196 kts 317°
2026-04-25 02:44 42.97551 -78.76995 3634 ft 199 kts 317°
2026-04-25 02:45 42.98503 -78.78340 3310 ft 195 kts 312°
2026-04-25 02:45 42.99639 -78.79234 3079 ft 189 kts 351°
2026-04-25 02:45 43.00923 -78.79051 3065 ft 188 kts 12°
2026-04-25 02:45 43.02179 -78.78510 3029 ft 189 kts 21°
2026-04-25 02:46 43.03380 -78.77803 3020 ft 187 kts 24°
2026-04-25 02:46 43.04567 -78.77069 3019 ft 187 kts 24°
2026-04-25 02:46 43.05753 -78.76331 3018 ft 187 kts 24°
2026-04-25 02:46 43.06940 -78.75591 3018 ft 187 kts 24°
2026-04-25 02:47 43.08043 -78.74679 2982 ft 187 kts 46°
2026-04-25 02:47 43.08454 -78.73030 3028 ft 190 kts 89°
2026-04-25 02:47 43.08267 -78.71212 3042 ft 195 kts 102°
2026-04-25 02:47 43.07958 -78.69428 3018 ft 190 kts 104°
2026-04-25 02:48 43.07633 -78.67683 3017 ft 189 kts 104°
2026-04-25 02:48 43.07306 -78.65951 3016 ft 187 kts 104°
2026-04-25 02:48 43.06990 -78.64270 3013 ft 183 kts 104°
2026-04-25 02:48 43.06446 -78.62743 2975 ft 180 kts 135°
2026-04-25 02:49 43.05309 -78.62085 3057 ft 181 kts 168°
2026-04-25 02:49 43.04045 -78.61828 3026 ft 184 kts 173°
2026-04-25 02:49 43.02796 -78.61935 3011 ft 179 kts 193°
2026-04-25 02:49 43.01679 -78.62688 3022 ft 181 kts 216°
2026-04-25 02:50 43.00773 -78.63874 3025 ft 180 kts 228°
2026-04-25 02:50 42.99967 -78.65140 3011 ft 173 kts 228°
2026-04-25 02:50 42.99145 -78.66304 3006 ft 168 kts 224°
2026-04-25 02:50 42.98312 -78.67414 2930 ft 170 kts 224°
2026-04-25 02:51 42.97420 -78.68518 2489 ft 175 kts 222°
2026-04-25 02:51 42.96511 -78.69692 1614 ft 185 kts 224°
2026-04-25 02:51 42.95639 -78.70859 1284 ft 165 kts 223°
2026-04-25 02:51 42.94815 -78.71913 800 ft 159 kts 225°
2026-04-25 02:52 42.94149 -78.72804 732 ft 103 kts 225°
2026-04-25 02:52 42.93746 -78.73340 732 ft 68 kts 230°
2026-04-25 02:52 42.93530 -78.73608 732 ft 30 kts 199°
2026-04-25 02:52 42.93369 -78.73591 731 ft 3 kts 155°
2026-04-25 02:53 42.93368 -78.73590 731 ft 0 kts 154°
2026-04-25 02:53 42.93360 -78.73584 731 ft 0 kts 143°
2026-04-25 02:53 42.93367 -78.73494 732 ft 14 kts 69°
2026-04-25 02:53 42.93374 -78.73443 731 ft 5 kts 104°
2026-04-25 02:54 42.93355 -78.73406 731 ft 8 kts 131°
2026-04-25 02:54 42.93340 -78.73384 732 ft 2 kts 134°
2026-04-25 02:54 42.93339 -78.73383 731 ft 0 kts 134°
2026-04-25 02:56 42.93338 -78.73382 731 ft 0 kts 134°
2026-04-25 03:00 42.93338 -78.73381 731 ft 0 kts 134°
2026-04-25 03:02 43.10655 -76.11767 421 ft 0 kts 178°
2026-04-25 03:02 42.93148 -78.74132 731 ft 0 kts 44°
2026-04-25 03:03 42.93153 -78.74126 731 ft 1 kts 44°